DW8824 Weather Reports


Display with metric or nautical units.
time (UTC)temp
F
wind
direction
speed
MPH
gust
MPH
rain 1hr
in
rain 24hr
in
rain mn
in
humidity
%
barometer
mb
20260503032404 73 182 1.0 5.0 0.00 0.17 0.00 82 1017.1
20260503031904 72 160 0.0 3.0 0.00 0.17 0.00 83 1017.1
20260503030904 72 174 0.0 3.0 0.00 0.17 0.00 83 1017.1
20260503030404 72 172 0.0 1.0 0.00 0.17 0.00 83 1017.0
20260503025904 72 173 0.0 3.0 0.00 0.17 0.00 83 1017.0
20260503025404 72 160 0.0 5.0 0.00 0.17 0.00 83 1017.0
20260503024904 72 158 1.0 5.0 0.00 0.17 0.00 84 1016.8
20260503023904 71 150 1.0 3.0 0.00 0.17 0.00 84 1016.8
20260503023403 71 143 0.0 1.0 0.00 0.17 0.00 84 1016.7
20260503022404 71 173 1.0 5.0 0.00 0.17 0.00 84 1016.5
20260503021905 71 153 0.0 0.0 0.00 0.17 0.00 84 1016.5
20260503020904 71 7 0.0 0.0 0.00 0.17 0.00 84 1016.3
20260503020404 71 0 0.0 3.0 0.00 0.17 0.00 84 1016.2
20260503015904 71 170 1.0 7.0 0.00 0.17 0.00 85 1016.2
20260503015404 71 142 1.0 5.0 0.00 0.17 0.00 85 1016.2
20260503014904 71 133 1.0 5.0 0.00 0.17 0.00 85 1016.2
20260503013404 71 160 0.0 2.0 0.00 0.17 0.00 85 1016.1
20260503012904 71 168 1.0 5.0 0.00 0.17 0.00 85 1016.1
20260503012404 71 148 0.0 2.0 0.00 0.17 0.00 85 1016.1
20260503011405 72 175 0.0 2.0 0.00 0.17 0.00 85 1016.1
20260503010904 72 166 0.0 1.0 0.00 0.17 0.00 85 1016.1
20260503010405 72 124 0.0 0.0 0.00 0.17 0.00 85 1016.1
20260503005904 72 138 0.0 0.0 0.00 0.17 0.00 84 1016.1
20260503005404 72 109 0.0 0.0 0.00 0.17 0.00 84 1016.0
20260503004904 72 136 0.0 3.0 0.00 0.17 0.00 84 1016.0
20260503004404 72 139 0.0 0.0 0.00 0.17 0.00 84 1016.0
20260503002903 72 137 0.0 6.0 0.00 0.17 0.00 84 1016.1
20260503002405 72 164 1.0 6.0 0.00 0.17 0.00 84 1016.1
20260503001904 72 169 0.0 3.0 0.00 0.17 0.00 84 1016.1
20260503001404 72 186 1.0 3.0 0.00 0.17 0.00 84 1016.1
20260503000904 72 177 2.0 5.0 0.00 0.17 0.00 84 1016.1
20260503000404 72 183 2.0 6.0 0.00 0.17 0.00 84 1016.2
20260502235404 71 150 0.0 8.0 0.00 0.17 0.00 84 1016.2
20260502234904 71 180 0.0 3.0 0.00 0.17 0.00 84 1016.2
20260502234404 71 180 1.0 7.0 0.00 0.17 0.00 84 1016.2
20260502233904 71 188 1.0 3.0 0.00 0.17 0.00 84 1016.2
20260502233405 71 193 0.0 3.0 0.00 0.17 0.00 84 1016.2
20260502232404 71 202 0.0 3.0 0.00 0.17 0.00 85 1016.3
20260502231904 71 180 0.0 0.0 0.00 0.17 0.00 84 1016.4
20260502230904 71 179 0.0 1.0 0.00 0.17 0.00 84 1016.4
20260502225904 71 184 0.0 2.0 0.00 0.17 0.00 84 1016.3
20260502225404 72 158 0.0 0.0 0.00 0.17 0.00 83 1016.3
20260502224904 72 158 0.0 0.0 0.00 0.17 0.00 83 1016.5
20260502223904 72 151 1.0 5.0 0.00 0.17 0.00 83 1016.5
20260502223404 72 156 0.0 0.0 0.00 0.17 0.00 83 1016.5
20260502222904 72 172 0.0 0.0 0.00 0.17 0.00 83 1016.6
20260502222404 72 166 0.0 3.0 0.00 0.17 0.00 83 1016.6
20260502221904 72 155 0.0 3.0 0.00 0.17 0.00 83 1016.6
20260502221404 72 150 0.0 6.0 0.00 0.17 0.00 83 1016.7
20260502220904 72 179 0.0 7.0 0.00 0.17 0.00 83 1016.6
20260502220404 72 130 0.0 5.0 0.00 0.17 0.00 83 1016.7
20260502215904 72 176 0.0 3.0 0.00 0.17 0.00 83 1016.7
20260502215404 72 160 0.0 6.0 0.00 0.17 0.00 83 1016.7
20260502214904 72 146 0.0 3.0 0.00 0.17 0.00 83 1016.8
20260502214404 72 151 1.0 5.0 0.00 0.17 0.00 83 1016.8
20260502213904 72 159 0.0 6.0 0.00 0.17 0.00 83 1016.8
20260502213403 72 37 0.0 3.0 0.00 0.17 0.00 83 1016.9
20260502212904 72 150 1.0 7.0 0.00 0.17 0.00 83 1016.8
20260502212404 72 137 0.0 1.0 0.00 0.17 0.00 83 1016.9
20260502211904 72 137 0.0 3.0 0.00 0.17 0.00 83 1016.9
20260502211404 72 157 1.0 5.0 0.00 0.17 0.00 83 1016.9
20260502210904 72 169 0.0 3.0 0.00 0.17 0.00 83 1016.9
20260502210404 72 158 1.0 5.0 0.00 0.17 0.00 84 1017.0
20260502205904 72 133 0.0 3.0 0.00 0.17 0.00 84 1017.0
20260502205404 72 157 1.0 5.0 0.00 0.17 0.00 84 1017.0
20260502204404 72 152 1.0 7.0 0.00 0.17 0.00 84 1017.0
20260502203904 72 153 0.0 3.0 0.00 0.17 0.00 84 1017.1
20260502202904 73 155 0.0 5.0 0.00 0.17 0.00 85 1017.1
20260502202404 73 142 0.0 3.0 0.00 0.17 0.00 85 1017.2
20260502201905 73 126 1.0 7.0 0.00 0.17 0.00 85 1017.1
20260502200904 73 131 0.0 3.0 0.00 0.17 0.00 85 1017.2
20260502200404 73 128 1.0 5.0 0.00 0.17 0.00 85 1017.3
20260502195904 73 141 1.0 5.0 0.00 0.17 0.17 85 1017.3
20260502195404 73 133 0.0 5.0 0.00 0.17 0.17 85 1017.2
20260502194404 73 131 1.0 7.0 0.00 0.17 0.17 85 1017.3
20260502193904 73 136 1.0 7.0 0.00 0.17 0.17 85 1017.3
20260502193404 73 145 2.0 7.0 0.00 0.17 0.17 85 1017.3
20260502192904 73 177 0.0 3.0 0.00 0.17 0.17 85 1017.3
20260502191904 73 148 0.0 5.0 0.00 0.17 0.17 85 1017.4
20260502191404 73 142 0.0 3.0 0.00 0.17 0.17 85 1017.4
20260502190904 73 138 1.0 6.0 0.00 0.17 0.17 85 1017.4
20260502190405 73 140 0.0 3.0 0.00 0.17 0.17 85 1017.3
20260502185904 73 116 0.0 5.0 0.00 0.17 0.17 85 1017.2
20260502185404 73 117 0.0 0.0 0.00 0.17 0.17 85 1017.3
20260502184904 73 109 0.0 5.0 0.00 0.17 0.17 84 1017.4
20260502184404 73 118 0.0 3.0 0.00 0.17 0.17 85 1017.3
20260502183904 73 157 0.0 2.0 0.00 0.17 0.17 85 1017.4
20260502182404 73 128 0.0 3.0 0.00 0.17 0.17 84 1017.4
20260502181904 74 110 0.0 2.0 0.00 0.17 0.17 84 1017.5
20260502181404 74 151 0.0 0.0 0.00 0.17 0.17 84 1017.5
20260502180904 74 142 0.0 5.0 0.00 0.17 0.17 84 1017.4
20260502180404 74 151 0.0 3.0 0.00 0.17 0.17 83 1017.4
20260502170404 76 133 2.0 9.0 0.00 0.17 0.17 81 1017.1
20260502163904 76 110 3.0 9.0 0.00 0.17 0.17 80 1017.0
20260502163404 76 106 2.0 9.0 0.00 0.17 0.17 81 1016.9
20260502162904 76 100 2.0 8.0 0.00 0.17 0.17 81 1016.9
20260502161904 76 113 2.0 9.0 0.00 0.17 0.17 82 1016.9
20260502161404 76 106 0.0 7.0 0.00 0.17 0.17 82 1016.9
20260502160404 76 99 7.0 14.0 0.00 0.17 0.17 81 1016.7
20260502151904 76 114 1.0 12.0 0.00 0.17 0.17 83 1016.3
20260502151404 76 123 3.0 12.0 0.00 0.17 0.17 83 1016.3
20260502150904 76 109 2.0 7.0 0.00 0.17 0.17 83 1016.3
20260502150404 76 104 1.0 6.0 0.00 0.17 0.17 83 1016.3
20260502130405 76 109 2.0 12.0 0.00 0.16 0.16 86 1015.4
20260502123404 77 112 5.0 12.0 0.00 0.16 0.16 86 1015.1
20260502122904 77 129 5.0 9.0 0.00 0.16 0.16 86 1015.0
20260502122404 76 118 5.0 13.0 0.01 0.16 0.16 87 1015.0
20260502121904 77 107 6.0 12.0 0.02 0.16 0.16 88 1015.0
20260502121404 76 92 6.0 15.0 0.04 0.16 0.16 88 1014.9
20260502120404 76 116 3.0 12.0 0.07 0.16 0.16 89 1014.9
20260502115905 76 105 5.0 12.0 0.07 0.16 0.16 90 1015.0
20260502115404 76 96 3.0 12.0 0.10 0.16 0.16 90 1014.9
20260502114404 76 103 4.0 12.0 0.13 0.16 0.16 91 1014.9
20260502113904 76 110 4.0 10.0 0.13 0.16 0.16 91 1014.9
20260502113404 75 92 4.0 12.0 0.13 0.16 0.16 91 1014.9
20260502112904 75 114 3.0 10.0 0.13 0.16 0.16 91 1015.0
20260502112404 75 152 6.0 14.0 0.13 0.15 0.15 91 1015.0
20260502111903 75 105 3.0 14.0 0.11 0.13 0.13 91 1015.0
20260502111404 75 150 2.0 14.0 0.09 0.12 0.12 90 1015.0
20260502110904 76 103 0.0 9.0 0.07 0.09 0.09 90 1015.2
20260502105903 76 64 1.0 8.0 0.06 0.09 0.09 90 1015.3
20260502105404 76 129 3.0 12.0 0.03 0.06 0.06 89 1015.3
20260502104905 76 134 2.0 10.0 0.02 0.04 0.04 88 1015.4
20260502103904 77 74 4.0 12.0 0.00 0.02 0.02 85 1015.4
20260502103405 78 159 3.0 12.0 0.00 0.02 0.02 84 1015.5
20260502102905 79 150 3.0 12.0 0.00 0.02 0.02 83 1015.4
20260502102404 79 126 5.0 14.0 0.00 0.02 0.02 82 1015.5
20260502101404 79 105 1.0 8.0 0.00 0.02 0.02 82 1015.5
20260502100904 79 101 3.0 12.0 0.00 0.02 0.02 80 1015.5
20260502100404 79 133 7.0 14.0 0.00 0.02 0.02 81 1015.6
20260502091404 80 113 2.0 12.0 0.00 0.02 0.02 81 1016.0
20260502090904 80 97 7.0 14.0 0.00 0.02 0.02 80 1016.0
20260502090404 80 108 5.0 13.0 0.00 0.02 0.02 80 1016.1
20260502071404 79 72 0.0 9.0 0.00 0.02 0.02 81 1017.1
20260502070905 79 96 3.0 12.0 0.00 0.02 0.02 81 1017.2
20260502070404 79 78 3.0 12.0 0.00 0.02 0.02 81 1017.3
20260502065904 79 101 6.0 13.0 0.00 0.02 0.02 82 1017.3
20260502064904 79 124 2.0 7.0 0.00 0.02 0.02 84 1017.5
20260502064405 78 136 3.0 10.0 0.00 0.02 0.02 84 1017.6
20260502063905 79 113 6.0 12.0 0.00 0.02 0.02 84 1017.6
20260502062404 78 147 5.0 12.0 0.00 0.02 0.02 84 1017.7
20260502061904 78 142 2.0 10.0 0.00 0.02 0.02 86 1017.7
20260502060904 78 72 1.0 8.0 0.00 0.02 0.02 85 1017.7
20260502060403 78 101 6.0 10.0 0.00 0.02 0.02 83 1017.8
20260502055904 79 87 3.0 12.0 0.00 0.02 0.02 83 1017.9
20260502055404 79 68 2.0 9.0 0.00 0.02 0.02 85 1017.9
20260502054904 78 91 1.0 7.0 0.02 0.02 0.02 86 1017.8
20260502053904 77 91 2.0 12.0 0.02 0.02 0.02 88 1017.9
20260502053405 77 76 0.0 0.0 0.02 0.02 0.02 89 1017.9
20260502052904 76 98 0.0 6.0 0.02 0.02 0.02 88 1018.0
20260502052404 76 99 1.0 6.0 0.02 0.02 0.02 88 1017.9
20260502051904 76 59 1.0 8.0 0.02 0.02 0.02 88 1017.9
20260502051404 76 84 7.0 12.0 0.02 0.02 0.02 88 1017.9
20260502050904 76 75 1.0 7.0 0.02 0.02 0.02 88 1017.8
20260502050404 76 99 3.0 8.0 0.02 0.02 0.02 88 1017.8
20260502045904 76 94 1.0 7.0 0.02 0.02 0.02 88 1017.8
20260502045405 77 155 2.0 7.0 0.02 0.02 0.02 87 1017.8
20260502044404 78 133 0.0 3.0 0.00 0.00 0.00 87 1017.7
20260502043904 78 165 1.0 6.0 0.00 0.00 0.00 88 1017.7
20260502043404 77 5 0.0 0.0 0.00 0.00 0.00 88 1017.7
20260502042904 77 134 0.0 0.0 0.00 0.00 0.00 88 1017.6
20260502042404 76 134 0.0 0.0 0.00 0.00 0.00 88 1017.6
20260502041904 76 127 0.0 0.0 0.00 0.00 0.00 88 1017.6
20260502041403 76 169 1.0 6.0 0.00 0.00 0.00 88 1017.6
20260502040904 76 79 0.0 2.0 0.00 0.00 0.00 88 1017.5
20260502040404 76 159 0.0 5.0 0.00 0.00 0.00 88 1017.5
20260502035405 76 150 0.0 1.0 0.00 0.00 0.00 89 1017.4
20260502034904 75 167 0.0 3.0 0.00 0.00 0.00 89 1017.4
20260502034404 75 175 0.0 3.0 0.00 0.00 0.00 89 1017.3
20260502033904 75 132 1.0 3.0 0.00 0.00 0.00 89 1017.3
20260502033404 75 67 0.0 6.0 0.00 0.00 0.00 89 1017.3
20260502032904 75 153 0.0 5.0 0.00 0.00 0.00 89 1017.3